Regional Weather Roundup
Issued by NWS

Home | Current Version | Previous Version | Text Only | Print | Product List | Glossary On
Versions: 1 2 3 4 5 6 7 8 9 10 11 12 13 14 15 16 17 18 19 20 21 22 23 24 25 26 27 28 29 30 31 32 33 34 35 36 37 38 39 40 41 42 43 44 45 46 47 48 49 50
397
ASHW40 PHFO 230243
RWRHI

WEATHER ROUNDUP FOR HAWAII
NATIONAL WEATHER SERVICE HONOLULU HI
400 PM HST WED MAR 22 2017

THIS IS AN AUTOMATED REPORT THAT HAS NOT BEEN QUALITY CONTROLLED.

NOTE..."FAIR" INDICATES FEW OR NO CLOUDS BELOW 12,000 FEET WITH NO
SIGNIFICANT WEATHER AND/OR OBSTRUCTIONS TO VISIBILITY.

* - THESE SITES REPORT LIMITED FIELDS

HIZ001>004-230300-
KAUAI-NIIHAU-

CITY           SKY/WX    TMP DP  RH WIND       PRES   REMARKS
LIHUE APT      MOSUNNY   79  66  64 E10       30.09F
PORT ALLEN*      N/A     81 N/A N/A SE14        N/A
POIPU*           N/A     81 N/A N/A E6G12       N/A
PRINCEVILLE*     N/A     79 N/A N/A E9G16       N/A
KOKOLE POINT*  NOT AVBL
MOLOAA DAIRY*    N/A     79  66  65 E10         N/A
WAIMEA HTS*      N/A     77  63  61 S7          N/A
PUU OPAE*      NOT AVBL
PUU LUA*       NOT AVBL
MAKAHA RIDGE*    N/A     72  64  78 N2          N/A
$$

HIZ005>011-230300-
OAHU-

CITY           SKY/WX    TMP DP  RH WIND       PRES   REMARKS
HONOLULU       MOSUNNY   84  62  47 VRB6      30.05F
KALAELOA       SUNNY     83  68  60 SE10      30.07F
KANEOHE MCB    CLOUDY    78  66  66 NE8       30.06S
WHEELER FIELD  PTSUNNY   80  67  63 VRB6      30.07S
BELLOWS*         N/A    N/A N/A N/A NE9         N/A
KAHUKU*          N/A    N/A N/A N/A NE8G16      N/A
WHEELER*         N/A    N/A N/A N/A NW6G12      N/A
WAIANAE HARBOR   N/A    N/A N/A N/A SW6         N/A
DILLINGHAM*      N/A     84  64  51 E2G8        N/A
KAHUKU TRN*      N/A     81  66  61 W7G17       N/A
KAWAILOA*        N/A     75  64  69 N6G13       N/A
KII*             N/A     79  66  65 E12         N/A
MAKUA RANGE*     N/A     66  52  59 E3          N/A
OAHU FOREST NW   N/A     72  61  68 CALM        N/A
SCHOFIELD BRK*   N/A     81  64  57 MISG        N/A
SCHOFIELD S*   NOT AVBL
WAIANAE VLY*     N/A     81  66  61 S7          N/A
KUAOKALA*        N/A     73   3   6 CALM        N/A
HONOULIUULI*   NOT AVBL
MOKUOLOE IS*   NOT AVBL
PALEHUA*         N/A     72  61  68 CALM        N/A
WAIAWA PHB*    NOT AVBL
$$

HIZ012>013-230300-
MOLOKAI-

CITY           SKY/WX    TMP DP  RH WIND       PRES   REMARKS
MOLOKAI AIRPT  MOSUNNY   82  65  56 SE7       30.07S
KALAUPAPA      NOT AVBL
MAKAPULAPAI*     N/A     81  64  57 E16G24      N/A
MOLOKAI 1*       N/A     79  66  65 SE1G7       N/A
PUU ALII*        N/A     68  61  78 NE2         N/A
$$

HIZ016-230300-
KAHOOLAWE-

CITY           SKY/WX    TMP DP  RH WIND       PRES   REMARKS
KAHOOLAWE*     NOT AVBL
HAKIOAWA*        N/A     78  63  58 MISG      30.48S
HONOKANAIA*      N/A     82  59  45 E18G31    29.99F
KANELOA*         N/A     79  63  57 E18G31    30.13F
KEALIALALO*    NOT AVBL
LUA MAKIKA*    NOT AVBL
$$

HIZ014>015-230300-
LANAI-

CITY           SKY/WX    TMP DP  RH WIND       PRES   REMARKS
LANAI CITY     PTSUNNY   75  63  66 W13       30.11F
LANAI 1*         N/A     75 N/A N/A NE12        N/A
$$

HIZ017>028-230300-
MAUI-

CITY           SKY/WX    TMP DP  RH WIND       PRES   REMARKS
KAHULUI        MOSUNNY   84  65  52 N16       30.03F
KAPALUA-W MAUI MOSUNNY   82  63  51 VRB7      30.06S
HANA AIRPORT   MOSUNNY   79  64  61 SE7       30.10S
HANA*            N/A     81 N/A N/A E10G16      N/A
HALEAKALA SUMM   N/A     50  14  23 E26G43      N/A
MAALAEA BAY*     N/A     81 N/A N/A N10G16      N/A
HALEAKALA*     NOT AVBL
KAUPO GAP*       N/A     88  63  42 S3G12       N/A
KULA 1*          N/A    N/A N/A N/A E8G23       N/A
$$

HIZ023>026-230300-
BIG ISLAND OF HAWAII COAST AND LOWER SLOPES-

CITY           SKY/WX    TMP DP  RH WIND       PRES   REMARKS
KAILUA KONA    SUNNY     82  65  56 SW10      30.03S
HILO           MOSUNNY   82  66  58 E16       30.06S
HONOKAA*         N/A     72 N/A N/A VRB1        N/A
KAWAIHAE MWT*    N/A     84 N/A N/A W7          N/A
KAWAIHAE*        N/A     79 N/A N/A W6        30.04S
SOUTH POINT*     N/A     79 N/A N/A N18G26      N/A
UPOLU AIRPORT* NOT AVBL
KAMUELA*       CLOUDY    75  61  60 CALM      30.15S
HAKALAU*         N/A     69  42  38 S7G16       N/A
KALOKO-HONOKO*   N/A     84  66  54 W8        30.03S
PALI 2*          N/A     73  55  53 NW16G25     N/A
KEALAKOMO*       N/A     82  66  57 E15         N/A
KAUPULEHU*       N/A     82  63  51 SW10G20     N/A
KAPAPALA*        N/A     79  58  48 E6G14       N/A
LOWER KAHUKU*    N/A     72  59  64 E3G15       N/A
PUHE CS*         N/A     82  68  61 W5          N/A
PUHO CS*         N/A     83  67  57 W3G10       N/A
PTA KEAMUKU*     N/A    N/A N/A N/A CALM        N/A
WAIKOLOA*        N/A     81  63  54 W8G15       N/A
$$

HIZ027>028-230300-
BIG ISLAND OF HAWAII INTERIOR AND SUMMMITS-

CITY           SKY/WX    TMP DP  RH WIND       PRES   REMARKS
BRADSHAW FIELD SUNNY     71  23  16 S21G28    30.34S
MK VISITOR CEN   N/A     54  10  17 E9          N/A
MAUNA KEA*       N/A     46  12  25 SW3         N/A
MAUNA LOA*       N/A    N/A N/A N/A MISG        N/A
MAUNA LOA 1*   NOT AVBL
PTA KIPUKA*      N/A     66  54  63 NW8G17      N/A
PTA RANGE 17*    N/A    N/A N/A N/A E12G28      N/A
PTA WEST*        N/A     64  55  72 NW10G18     N/A
NENE CABIN*      N/A     59  50  72 E9G18       N/A
AHUMOA*          N/A     59  56  90 NW3G14      N/A
PTA PORTABLE*  NOT AVBL
PUU MALI*        N/A    N/A N/A N/A NE18G37     N/A
$$

HIC003-230300-
NORTHWEST ISLANDS-

CITY           SKY/WX    TMP DP  RH WIND       PRES   REMARKS
MIDWAY ISLAND  SUNNY     73  70  88 SE14      29.95F
MIDWAY NOS*      N/A     72 N/A N/A MISG      29.93S
FRENCH FRIGATE NOT AVBL
$$

PHZ110>124-180-230300-
BUOY REPORTS

STATION/POSITION TIME  TEMP    WIND        PRES    WAVE   SWELL
                       AIR SEA DIR/SP/G            HT/PER HT/DIR
                 (UTC) (F)     (DEG/KT/KT) (MB)    (FT/S) (FT/D)
BUOY 51001       0220   76 77  160/ 12/ 16 1018.5
BUOY 51101       0150   76 77  150/ 12/ 14 1018.8F   5/14   5/260
BUOY 51100       NOT AVBL
BUOY 51002       0220   78 78   80/ 16/ 19 1015.9
BUOY 51003       0150   78 78   90/ 12/ 16 1017.0F   7/13   7/300
BUOY 51004       0150      78   70/ 16/ 19 1016.6F   7/16   5/300
BARBERS PT BUOY  NOT AVBL
WAIMEA BAY BUOY  0202      74                N/A     6/14   5/310
KAILUA BAY BUOY  0204      77                N/A     5/ 7   2/ 20
LANAI BUOY       0215      79                N/A     3/13   2/280
BARBERS PT 2     NOT AVBL
PAUWELA MAUI     0209      77                N/A     6/14   3/320
HILO             0212      78                N/A     6/14   3/330
KANEOHE BAY BUOY 0225      77                N/A     4/ 6   2/ 10
HANALEI KAUAI    0222      77                N/A     6/14   5/300
KAHULUI HARBOR   0218           20/  6/ 10   N/A
HONOLULU HARBOR  0206   81 78   50/  5/ 11 1018.6
KILO NALU        NOT AVBL
HILO HARBOR      0206   87 78  120/ 14/ 17 1017.7
MOKUOLOE         0136   78 80   80/  6/  8 1018.8F
NAWILIWILI       0206   77 78  100/  7/ 10 1018.5
WHOTS BUOY       NOT AVBL
BUOY 51028       NOT AVBL
$$

......................KEY........................................
  SKY/WX - SKY CONDITIONS/PRESENT WEATHER
  TMP    - TEMPERATURE IN FAHRENHEIT
  DWPT   - DEWPOINT IN FAHRENHEIT
  RH     - RELATIVE HUMIDITY IN PERCENT
  WIND   - DIRECTION AND SPEED /MPH FOR ISLANDS...KTS FOR BUOYS/
  PRES   - MEAN SEA LEVEL PRESSURE IN INCHES OF HG
  VSB    - VISIBILITY IN MILES
  HX     - HEAT INDEX
  WCI    - WIND CHILL INDEX
  VRB    - VARIABLE WIND DIRECTION
  N/A    - NOT AVAILABLE




USA.gov is the U.S. government's official web portal to all federal, state and local government web resources and services.